Change the Weather History Date:

Friday, May 24, 2013

  Actual Average Record
Temperature  
Mean Temperature 60 °F -  
Max Temperature 71 °F 69 °F 92 °F (1964)
Min Temperature 48 °F 47 °F 32 °F (1963)
Degree Days  
Heating Degree Days 6    
Growing Degree Days 10 (Base 50)    
Moisture  
Dew Point 59 °F    
Average Humidity 90    
Maximum Humidity 100    
Minimum Humidity 77    
Precipitation  
Precipitation 0.33 in - - ()
Sea Level Pressure  
Sea Level Pressure 29.74 in    
Wind  
Wind Speed 9 mph (SW)    
Max Wind Speed 16 mph    
Max Gust Speed 23 mph    
Visibility 9 miles    
Events Rain    
Averages and records for this station are not official NWS values.
T = Trace of Precipitation, MM = Missing Value Source: NWS Daily Summary

Daily Weather History Graph

Daily Weather History Graph

Search for Another Location

Airport or City:

Trip Planner

Search our weather history database for the weather conditions in past years. The results will help you decide how hot, cold, wet, or windy it might be!

Date:

Astronomy

May. 24, 2013 Rise Set
Actual Time 5:15 AM EDT 8:09 PM EDT
Civil Twilight 4:42 AM EDT 8:42 PM EDT
Nautical Twilight 3:59 AM EDT 9:24 PM EDT
Astronomical Twilight 3:10 AM EDT 10:14 PM EDT
Moon 7:47 PM EDT (5/24) 4:46 AM EDT (5/24)
Length of Visible Light 16h 00m
Length of Day
14h 53m
Full, 100% of the Moon is Illuminated
May 24
Full
May 25
Full
May 31
Last Quarter
Jun 8
New
Jun 16
First Quarter

Hourly Weather History & Observations

Time (EDT) Temp. Dew Point Humidity Pressure Visibility Wind Dir Wind Speed Gust Speed Precip Events Conditions
12:44 AM 64.4 °F 64.4 °F 100% 29.78 in 10.0 mi South 10.4 mph - 0.03 in Rain Light Rain
12:56 AM 64.9 °F 63.0 °F 93% 29.81 in 10.0 mi South 10.4 mph 19.6 mph 0.04 in Rain Light Rain
1:28 AM 64.4 °F 64.4 °F 100% 29.77 in 9.0 mi South 11.5 mph - 0.02 in Rain Light Rain
1:56 AM 64.9 °F 63.0 °F 93% 29.79 in 10.0 mi South 12.7 mph 23.0 mph 0.03 in Rain Light Rain
2:18 AM 64.4 °F 62.6 °F 94% 29.75 in 10.0 mi South 10.4 mph - 0.00 in Rain Light Rain
2:46 AM 64.4 °F 62.6 °F 94% 29.73 in 8.0 mi South 11.5 mph - 0.02 in Rain Light Rain
2:56 AM 64.0 °F 63.0 °F 96% 29.76 in 6.0 mi South 9.2 mph - 0.03 in Rain Light Rain
3:15 AM 64.4 °F 62.6 °F 94% 29.72 in 10.0 mi South 8.1 mph - 0.01 in Rain Light Rain
3:56 AM 64.0 °F 63.0 °F 96% 29.73 in 10.0 mi South 10.4 mph - 0.02 in Rain Light Rain
4:34 AM 64.4 °F 62.6 °F 94% 29.67 in 10.0 mi South 6.9 mph - 0.00 in   Overcast
4:56 AM 64.0 °F 63.0 °F 96% 29.69 in 10.0 mi South 6.9 mph - 0.00 in   Overcast
5:22 AM 64.4 °F 62.6 °F 94% 29.65 in 8.0 mi South 4.6 mph - N/A   Overcast
5:56 AM 64.0 °F 63.0 °F 96% 29.69 in 2.5 mi SSW 4.6 mph - 0.00 in Rain Light Rain
6:36 AM 64.4 °F 62.6 °F 94% 29.65 in 4.0 mi South 5.8 mph - 0.01 in   Overcast
6:56 AM 64.9 °F 64.0 °F 97% 29.69 in 2.0 mi SSE 4.6 mph - 0.01 in   Overcast
7:03 AM 64.4 °F 62.6 °F 94% 29.65 in 10.0 mi South 6.9 mph - N/A   Overcast
7:31 AM 64.4 °F 64.4 °F 100% 29.66 in 10.0 mi South 9.2 mph - N/A   Overcast
7:52 AM 64.4 °F 62.6 °F 94% 29.68 in 10.0 mi SW 9.2 mph - N/A   Overcast
7:56 AM 64.9 °F 63.0 °F 93% 29.72 in 10.0 mi SSW 6.9 mph - N/A   Overcast
8:43 AM 66.2 °F 62.6 °F 88% 29.70 in 10.0 mi SW 6.9 mph - N/A   Overcast
8:56 AM 66.0 °F 64.0 °F 93% 29.73 in 10.0 mi SW 6.9 mph - N/A   Overcast
9:15 AM 66.2 °F 62.6 °F 88% 29.70 in 10.0 mi SW 8.1 mph - 0.00 in Rain Light Rain
9:56 AM 66.9 °F 64.0 °F 90% 29.74 in 10.0 mi SSW 6.9 mph - 0.00 in Rain Light Rain
10:03 AM 66.2 °F 64.4 °F 94% 29.71 in 10.0 mi SSW 6.9 mph - 0.00 in Rain Light Rain
10:53 AM 66.2 °F 64.4 °F 94% 29.71 in 10.0 mi SSW 6.9 mph - 0.00 in Rain Light Rain
10:56 AM 68.0 °F 64.0 °F 87% 29.75 in 10.0 mi SSW 8.1 mph - 0.00 in Rain Light Rain
11:30 AM 69.8 °F 64.4 °F 83% 29.71 in 10.0 mi SW 4.6 mph - 0.00 in   Mostly Cloudy
11:56 AM 69.1 °F 64.0 °F 84% 29.74 in 10.0 mi SW 5.8 mph - 0.00 in   Overcast
12:53 PM 69.8 °F 64.4 °F 83% 29.71 in 10.0 mi Calm Calm - 0.02 in Rain Light Rain
12:56 PM 69.1 °F 64.9 °F 87% 29.74 in 10.0 mi SSW 3.5 mph - 0.02 in Rain Light Rain
1:56 PM 70.0 °F 64.0 °F 81% 29.73 in 10.0 mi SSW 4.6 mph - 0.00 in   Overcast
2:56 PM 71.1 °F 64.0 °F 78% 29.73 in 10.0 mi SSW 3.5 mph - N/A   Mostly Cloudy
3:24 PM 64.4 °F 57.2 °F 77% 29.70 in 10.0 mi NNW 12.7 mph 23.0 mph N/A   Mostly Cloudy
3:33 PM 64.4 °F 57.2 °F 77% 29.70 in 10.0 mi NNW 16.1 mph - N/A   Overcast
3:56 PM 62.1 °F 59.0 °F 90% 29.74 in 9.0 mi NNW 9.2 mph - 0.03 in   Overcast
4:36 PM 62.6 °F 59.0 °F 88% 29.72 in 8.0 mi North 4.6 mph - 0.03 in   Overcast
4:56 PM 62.1 °F 59.0 °F 90% 29.76 in 10.0 mi NNW 5.8 mph - 0.03 in   Overcast
5:31 PM 60.8 °F 55.4 °F 82% 29.72 in 10.0 mi NNW 6.9 mph - N/A   Overcast
5:56 PM 60.1 °F 55.0 °F 83% 29.77 in 8.0 mi NW 9.2 mph - 0.01 in   Overcast
6:15 PM 57.2 °F 53.6 °F 88% 29.75 in 2.5 mi NNW 9.2 mph - 0.02 in   Overcast
6:22 PM 57.2 °F 55.4 °F 94% 29.75 in 4.0 mi North 5.8 mph - 0.03 in   Overcast
6:56 PM 55.9 °F 52.0 °F 87% 29.80 in 7.0 mi NNW 9.2 mph - 0.03 in   Overcast
7:03 PM 55.4 °F 50.0 °F 82% 29.77 in 10.0 mi NNW 11.5 mph 16.1 mph N/A   Overcast
7:56 PM 54.0 °F 48.0 °F 80% 29.83 in 10.0 mi NW 8.1 mph - N/A   Overcast
8:38 PM 51.8 °F 48.2 °F 88% 29.80 in 8.0 mi NW 10.4 mph - 0.05 in Rain Light Rain
8:56 PM 50.0 °F 48.0 °F 93% 29.84 in 10.0 mi NNW 9.2 mph - 0.05 in Rain Light Rain
9:18 PM 50.0 °F 48.2 °F 94% 29.81 in 8.0 mi NNW 12.7 mph 23.0 mph 0.00 in Rain Light Rain
9:56 PM 48.9 °F 46.9 °F 93% 29.86 in 8.0 mi NW 9.2 mph 17.3 mph 0.01 in Rain Light Rain
10:33 PM 48.2 °F 46.4 °F 93% 29.82 in 6.0 mi NNW 6.9 mph - 0.01 in Rain Light Rain
10:56 PM 48.0 °F 46.9 °F 96% 29.86 in 7.0 mi NNW 8.1 mph - 0.01 in Rain Light Rain
11:56 PM 48.0 °F 46.9 °F 96% 29.85 in 5.0 mi NNW 8.1 mph - 0.01 in   Overcast